Location: Brienzwiler
(46.7508°N, 8.1014°E)
Time: 17:07:53
(UTC+00:00)

Okean 3 Rocket - Pass Details

Date: 05 July 2020
Orbit: 615 x 645 km, 82.5° (Epoch: 10 August)

Event Time Altitude Azimuth Distance (km) Brightness Sun altitude
Exits shadow 22:47:02 49° 171° (S) 819 3.7 -19.8°
Maximum altitude 22:48:11 77° 98° (E) 652 3.5 -19.9°
Drops below altitude 10° 22:52:38 10° 12° (NNE) 2,009 7.2 -20.0°
Sets 22:54:52 0° 11° (N) 2,916 8.3 -20.1°
